DateTimeUTC,F1_A11,F1_S11,BsB_S11,BsG_S11,BsR_S11,BbsB_S11,BbsG_S11,BbsR_S11,BaB_A11,BaG_A11,BaR_A11,Tu_S11,T_S11,Uu_S11,U_S11,P_S11,T1_A11
2021-10-05T19:00:00Z,00000200,21000000,,,,,,,-000.00,0000.26,0000.22,16.9,24.1,00.3,00.2,0669.3,30.9
2021-10-05T19:01:00Z,00000200,21000000,,,,,,,0000.09,0000.28,0000.25,16.9,24.1,00.3,00.2,0669.3,30.9
2021-10-05T19:02:00Z,00000200,21000000,,,,,,,0000.09,0000.21,-000.03,16.9,24.1,00.3,00.2,0669.3,30.9
2021-10-05T19:03:00Z,00000200,61000000,,,,,,,0000.25,-000.04,0000.23,16.9,24.2,00.3,00.2,0669.3,30.9
2021-10-05T19:04:00Z,00000200,41000000,0000.48,0000.12,-000.13,-000.07,0000.14,0000.11,0000.03,0000.21,0000.16,17.4,24.1,00.6,00.4,0670.2,31.0
2021-10-05T19:05:00Z,00000200,01000000,-000.17,0000.06,0000.21,-000.56,0000.20,-000.39,0000.15,0000.11,-000.21,17.5,24.1,00.7,00.4,0670.3,31.0
2021-10-05T19:06:00Z,00000200,01000000,0000.78,-000.27,0000.35,-000.11,0000.23,-000.04,-000.07,-000.27,-000.16,17.5,24.1,00.6,00.4,0670.3,30.9
2021-10-05T19:07:00Z,00000200,01000000,-000.56,-000.07,0000.07,0000.00,0000.27,-000.31,-000.25,-000.20,-000.09,17.4,24.1,00.6,00.4,0670.3,30.9
2021-10-05T19:08:00Z,00000200,01000000,-000.08,0000.16,0000.19,-000.06,-000.01,0000.23,-000.31,-000.30,-000.26,17.4,24.0,00.6,00.4,0670.3,30.9
2021-10-05T19:09:00Z,00000200,01000000,-000.09,-000.02,0000.04,0000.31,0000.43,0000.17,-000.05,-000.22,-000.23,17.4,24.0,00.7,00.5,0670.3,30.9
2021-10-05T19:10:00Z,00000200,01000000,0000.34,-000.10,0000.30,0000.47,-000.27,0000.23,-000.28,-000.00,0000.19,17.3,24.0,00.6,00.4,0670.3,30.9
2021-10-05T19:11:00Z,00000200,01000000,0000.46,-000.09,-000.18,-000.14,-000.15,0000.08,-000.22,-000.27,-000.32,17.3,23.9,00.5,00.3,0670.2,30.9
2021-10-05T19:12:00Z,00000200,01000000,0000.36,-000.14,0000.05,-000.52,-000.19,-000.16,0000.21,0000.18,-000.05,17.2,23.9,00.5,00.3,0670.2,30.9
2021-10-05T19:13:00Z,00000200,01000000,-000.21,-000.17,0000.12,-000.22,0000.07,-000.33,-000.00,-000.11,0000.03,17.2,23.9,00.5,00.3,0670.2,30.9
2021-10-05T19:14:00Z,00000200,01000000,0000.00,0000.17,0000.30,0000.09,0000.10,-000.28,-000.03,-000.06,0000.22,17.2,23.8,00.4,00.2,0670.2,30.9
2021-10-05T19:15:00Z,00000200,01000000,-000.12,-000.12,-000.14,-000.14,-000.27,-000.04,0000.18,0000.58,0000.34,17.2,23.8,00.3,00.2,0670.2,30.9
2021-10-05T19:16:00Z,00000200,01000000,-000.77,-000.02,-000.03,-000.12,-000.21,0000.05,0000.05,-000.06,0000.20,17.2,23.9,00.4,00.3,0670.2,30.9
2021-10-05T19:17:00Z,00000200,01000000,0000.34,-000.30,-000.07,0000.23,-000.02,-000.40,0000.19,0000.12,0000.04,17.3,23.9,00.4,00.3,0670.2,30.9
2021-10-05T19:18:00Z,00000200,01000000,-000.14,-000.07,0000.17,0000.12,-000.20,-000.12,-000.14,-000.06,-000.16,17.4,24.0,00.4,00.3,0670.2,30.9
2021-10-05T19:19:00Z,00000200,01000000,-000.42,-000.19,-000.07,-000.38,0000.12,-000.25,0000.13,0000.01,-000.25,17.5,24.0,00.4,00.3,0670.2,30.9
2021-10-05T19:20:00Z,00000200,01000000,0000.50,-000.26,0000.13,0000.57,0000.03,0000.11,-000.32,-000.33,-000.10,17.5,24.0,00.4,00.3,0670.2,30.9
2021-10-05T19:21:00Z,00000200,01000000,0000.36,0000.08,-000.34,0000.58,0000.17,0000.22,-000.10,0000.21,0000.16,17.5,24.0,00.4,00.2,0670.2,30.9
2021-10-05T19:22:00Z,00000200,01000000,-000.38,0000.04,0000.27,-000.01,-000.16,0000.16,0000.01,0000.05,0000.22,17.4,24.0,00.3,00.2,0670.2,30.9
2021-10-05T19:23:00Z,00000200,01000000,0000.08,0000.13,-000.04,0000.48,-000.04,-000.01,0000.18,-000.21,-000.36,17.4,24.0,00.3,00.2,0670.2,30.9
2021-10-05T19:24:00Z,00000200,01000000,-000.31,0000.03,0000.24,-000.12,0000.17,-000.25,-000.12,-000.51,-000.07,17.3,23.9,00.3,00.2,0670.1,30.9
2021-10-05T19:25:00Z,00000200,01000000,-000.35,0000.25,0000.00,0000.53,0000.17,-000.14,-000.42,0000.08,-000.37,17.3,23.9,00.3,00.2,0670.1,30.9
2021-10-05T19:26:00Z,00000200,01000000,0000.01,-000.24,0000.07,-000.45,-000.21,-000.10,-000.19,-000.35,-000.44,17.2,23.9,00.3,00.2,0670.1,30.9
2021-10-05T19:27:00Z,00000200,01000000,-000.62,0000.34,-000.37,0000.44,-000.09,-000.06,-000.14,-000.01,0000.34,17.2,23.8,00.2,00.1,0670.1,30.9
2021-10-05T19:28:00Z,00000200,01000000,-000.47,0000.07,-000.27,0000.12,0000.09,-000.43,-000.51,-000.49,-000.70,17.2,23.8,00.2,00.1,0670.1,30.9
2021-10-05T19:29:00Z,00000200,01000000,-000.44,0000.05,-000.08,0000.25,0000.09,-000.08,0000.35,0000.34,0000.30,17.1,23.8,00.2,00.1,0670.1,30.9
2021-10-05T19:30:00Z,00000200,01000000,0000.06,-000.01,0000.06,-000.11,0000.06,-000.01,0000.32,0000.09,0000.42,17.1,23.8,00.1,00.1,0670.1,30.9
2021-10-05T19:31:00Z,00000200,01000000,0000.09,0000.15,0000.04,0000.03,-000.03,-000.45,0000.06,0000.36,0000.02,17.2,23.8,00.1,00.1,0670.1,30.9
2021-10-05T19:32:00Z,00000200,01000000,0000.20,-000.11,-000.03,-000.23,-000.45,-000.26,-000.13,-000.17,0000.27,17.3,23.8,00.1,00.1,0670.0,30.9
2021-10-05T19:33:00Z,00000200,01000000,0000.38,-000.04,-000.11,0000.12,0000.32,-000.17,-000.09,0000.08,-000.18,17.4,23.9,00.1,00.1,0670.0,31.0
2021-10-05T19:34:00Z,00000200,01000000,-000.46,-000.12,-000.06,0000.28,0000.01,-000.10,-000.09,-000.15,-000.10,17.4,23.9,00.1,00.1,0670.0,30.9
2021-10-05T19:35:00Z,00000200,01000000,0000.68,0000.18,0000.02,0000.17,0000.12,0000.31,0000.34,0000.03,-000.14,17.4,23.9,00.1,00.1,0670.0,30.9
2021-10-05T19:36:00Z,00000200,01000000,0000.58,-000.42,-000.01,0000.00,-000.03,-000.19,-000.72,-000.49,-000.13,17.4,23.9,00.1,00.0,0670.0,30.9
2021-10-05T19:37:00Z,00000200,01000000,-001.19,0000.10,0000.26,0000.39,0000.03,0000.21,-000.16,0000.26,-000.03,17.3,23.9,00.0,00.0,0669.9,30.9
2021-10-05T19:38:00Z,00000200,01000000,0000.05,-000.17,-000.15,0000.11,0000.19,-000.36,0000.10,-000.35,-000.14,17.2,23.9,00.1,00.0,0669.9,30.9
2021-10-05T19:39:00Z,00000200,01000000,-000.73,-000.24,-000.38,-000.09,-000.24,-000.09,-000.24,-000.23,-000.17,17.2,23.8,00.1,00.0,0669.9,30.9
2021-10-05T19:40:00Z,00000200,01000000,0000.15,0000.09,-000.30,-000.15,-000.01,-000.02,-000.01,0000.15,-000.09,17.2,23.8,00.0,00.0,0669.9,30.9
2021-10-05T19:41:00Z,00000200,01000000,0000.60,-000.15,-000.15,0000.39,0000.13,-000.19,0000.32,0000.01,-000.07,17.1,23.8,00.0,00.0,0669.9,30.9
2021-10-05T19:42:00Z,00000200,01000000,0000.12,0000.02,-000.02,0000.19,-000.20,-000.11,-000.86,-000.58,-000.17,17.1,23.8,00.1,00.0,0669.8,30.9
2021-10-05T19:43:00Z,00000200,01000000,0000.40,-000.08,-000.24,0000.70,0000.03,-000.06,0000.39,0000.33,0000.03,17.0,23.7,00.0,00.0,0669.8,30.9
2021-10-05T19:44:00Z,00000200,01000000,-000.27,-000.31,-000.01,-000.63,0000.03,0000.24,0000.13,0000.04,0000.07,17.0,23.7,00.0,00.0,0669.8,30.9
2021-10-05T19:45:00Z,00000200,01000000,-000.31,-000.13,0000.33,-000.41,0000.05,-000.28,0000.44,0000.30,0000.49,17.0,23.7,00.0,00.0,0669.8,30.9
2021-10-05T19:46:00Z,00000200,01000000,-000.86,-000.48,-000.21,-000.32,-000.15,0000.09,-000.04,0000.14,0000.49,17.1,23.7,00.1,00.0,0669.8,30.9
2021-10-05T19:47:00Z,00000200,01000000,-000.50,-000.33,-000.33,0000.21,-000.14,-000.08,-000.11,-000.02,-000.32,17.2,23.7,00.0,00.0,0669.8,30.9
2021-10-05T19:48:00Z,00000200,01000000,0000.20,0000.36,0000.25,0000.36,-000.03,0000.27,0000.11,0000.33,0000.32,17.3,23.8,00.0,00.0,0669.8,30.9
2021-10-05T19:49:00Z,00000200,01000000,-000.14,-000.05,0000.01,0000.39,0000.29,0000.34,-000.02,0000.19,-000.21,17.3,23.8,00.1,00.0,0669.8,30.9
2021-10-05T19:50:00Z,00000200,01000000,-000.13,-000.12,-000.11,0000.50,0000.05,-000.16,-000.04,-000.49,-000.15,17.3,23.8,00.0,00.0,0669.8,30.9
2021-10-05T19:51:00Z,00000200,01000000,-000.43,-000.24,0000.09,-000.09,0000.07,-000.10,-000.14,-000.20,-000.27,17.3,23.8,00.0,00.0,0669.8,30.9
2021-10-05T19:52:00Z,00000200,01000000,0000.23,-000.36,-000.22,-000.10,-000.35,-000.08,-000.59,-000.27,-000.32,17.3,23.8,00.0,00.0,0669.8,30.9
2021-10-05T19:53:00Z,00000200,01000000,0000.04,0000.21,-000.02,-000.43,0000.22,-000.18,0000.42,-000.04,0000.47,17.2,23.8,00.0,00.0,0669.7,30.9
2021-10-05T19:54:00Z,00000200,01000000,0000.29,0000.01,0000.23,0000.33,0000.08,-000.23,-000.34,-000.57,-000.48,17.1,23.8,00.0,00.0,0669.7,30.9
2021-10-05T19:55:00Z,00000200,01000000,-000.58,0000.07,-000.03,-000.79,0000.15,-000.34,-000.16,0000.39,-000.08,17.1,23.7,00.0,00.0,0669.7,30.9
2021-10-05T19:56:00Z,00000200,01000000,0000.66,-000.13,0000.20,-000.62,0000.19,-000.28,-000.05,-000.02,0000.03,17.0,23.7,00.0,00.0,0669.7,30.9
2021-10-05T19:57:00Z,00000200,41010000,,,,,,,0000.70,0000.92,0000.54,17.1,23.7,00.3,00.2,0669.7,30.9
2021-10-05T19:58:00Z,00000200,61000000,,,,,,,-000.20,-000.60,-000.19,16.6,23.8,00.0,00.0,0668.7,30.9
2021-10-05T19:59:00Z,00000200,21000000,,,,,,,-000.06,0000.17,-000.11,16.6,23.9,,00.0,0668.7,30.9
